Dublin, GA

5:49 PM EDT on September 24, 2017 (GMT -0400)
Dublin

Weather History for KDBN - July, 2014

Change the Weather History Date:

Friday, July 4, 2014

  Actual Average Record
Temperature  
Mean Temperature 74 °F -  
Max Temperature 86 °F 93 °F 100 °F (1948)
Min Temperature 62 °F 68 °F 60 °F (1933)
Cooling Degree Days 9    
Growing Degree Days 24 (Base 50)    
Moisture  
Dew Point 63 °F    
Average Humidity 67    
Maximum Humidity 94    
Minimum Humidity 37    
Precipitation  
Precipitation 0.00 in - - ()
Sea Level Pressure  
Sea Level Pressure 30.08 in    
Wind  
Wind Speed 3 mph (NW)    
Max Wind Speed 8 mph    
Max Gust Speed -    
Visibility 10 miles    
Events      
Averages and records for this station are not official NWS values.
T = Trace of Precipitation, MM = Missing Value Source: NWS Daily Summary

Daily Weather History Graph

Daily Weather History Graph

Search for Another Location

Airport or City:

Trip Planner

Search our weather history database for the weather conditions in past years. The results will help you decide how hot, cold, wet, or windy it might be!

Date:

Astronomy

Jul. 04, 2014 Rise Set
Actual Time 6:26 AM EDT 8:45 PM EDT
Civil Twilight 5:58 AM EDT 9:14 PM EDT
Nautical Twilight 5:22 AM EDT 9:49 PM EDT
Astronomical Twilight 4:44 AM EDT 10:28 PM EDT
Moon 1:00 PM EDT (7/4) 12:26 AM EDT (7/4)
Length of Visible Light 15h 16m
Length of Day
14h 18m
Waxing Crescent, 42% of the Moon is Illuminated
Jul 4
Waxing Crescent
Jul 5
First Quarter
Jul 12
Full
Jul 18
Last Quarter
Jul 26
New

Hourly Weather History & Observations

Time (EDT) Temp. Heat Index Dew Point Humidity Pressure Visibility Wind Dir Wind Speed Gust Speed Precip Events Conditions
12:15 AM 77.0 °F - 60.8 °F 57% 30.02 in 10.0 mi NW 5.8 mph - N/A   Clear
12:35 AM 75.2 °F - 60.8 °F 61% 30.02 in 10.0 mi NW 5.8 mph - N/A   Clear
12:55 AM 75.2 °F - 60.8 °F 61% 30.02 in 10.0 mi NW 5.8 mph - N/A   Clear
1:15 AM 73.4 °F - 60.8 °F 65% 30.03 in 10.0 mi NW 4.6 mph - N/A   Clear
1:35 AM 71.6 °F - 62.6 °F 73% 30.03 in 10.0 mi Calm Calm - N/A   Clear
1:55 AM 71.6 °F - 60.8 °F 69% 30.03 in 10.0 mi WNW 3.5 mph - N/A   Clear
2:15 AM 71.6 °F - 60.8 °F 69% 30.03 in 10.0 mi NW 4.6 mph - N/A   Clear
2:35 AM 71.6 °F - 60.8 °F 69% 30.03 in 10.0 mi Calm Calm - N/A   Clear
2:55 AM 69.8 °F - 60.8 °F 73% 30.04 in 10.0 mi Calm Calm - N/A   Clear
3:15 AM 69.8 °F - 60.8 °F 73% 30.04 in 10.0 mi Calm Calm - N/A   Clear
3:35 AM 68.0 °F - 62.6 °F 83% 30.04 in 10.0 mi Calm Calm - N/A   Clear
3:55 AM 68.0 °F - 62.6 °F 83% 30.04 in 10.0 mi Calm Calm - N/A   Clear
4:15 AM 68.0 °F - 62.6 °F 83% 30.04 in 10.0 mi Calm Calm - N/A   Clear
4:35 AM 64.4 °F - 60.8 °F 88% 30.04 in 10.0 mi Calm Calm - N/A   Clear
4:55 AM 64.4 °F - 60.8 °F 88% 30.05 in 10.0 mi Calm Calm - N/A   Clear
5:15 AM 64.4 °F - 60.8 °F 88% 30.05 in 10.0 mi Calm Calm - N/A   Clear
5:35 AM 66.2 °F - 60.8 °F 83% 30.06 in 10.0 mi Calm Calm - N/A   Clear
5:55 AM 62.6 °F - 60.8 °F 94% 30.06 in 10.0 mi Calm Calm - N/A   Clear
6:15 AM 62.6 °F - 60.8 °F 94% 30.07 in 10.0 mi Calm Calm - N/A   Clear
6:35 AM 62.6 °F - 60.8 °F 94% 30.07 in 10.0 mi Calm Calm - N/A   Clear
6:55 AM 64.4 °F - 60.8 °F 88% 30.07 in 10.0 mi West 4.6 mph - N/A   Clear
7:15 AM 64.4 °F - 60.8 °F 88% 30.08 in 10.0 mi WNW 3.5 mph - N/A   Clear
7:35 AM 68.0 °F - 60.8 °F 78% 30.09 in 10.0 mi WNW 5.8 mph - N/A   Clear
7:55 AM 68.0 °F - 62.6 °F 83% 30.09 in 10.0 mi WNW 4.6 mph - N/A   Clear
8:15 AM 68.0 °F - 60.8 °F 78% 30.09 in 10.0 mi WNW 5.8 mph - N/A   Clear
8:35 AM 69.8 °F - 60.8 °F 73% 30.10 in 10.0 mi NW 4.6 mph - N/A   Clear
8:55 AM 69.8 °F - 62.6 °F 78% 30.10 in 10.0 mi NW 4.6 mph - N/A   Clear
9:15 AM 71.6 °F - 60.8 °F 69% 30.10 in 10.0 mi NW 4.6 mph - N/A   Clear
9:35 AM 71.6 °F - 60.8 °F 69% 30.11 in 10.0 mi NNW 4.6 mph - N/A   Clear
9:55 AM 71.6 °F - 60.8 °F 69% 30.10 in 10.0 mi NW 4.6 mph - N/A   Clear
10:15 AM 71.6 °F - 60.8 °F 69% 30.10 in 10.0 mi Calm Calm - N/A   Clear
10:35 AM 73.4 °F - 62.6 °F 69% 30.10 in 10.0 mi SW 3.5 mph - N/A   Clear
10:55 AM 75.2 °F - 62.6 °F 65% 30.11 in 10.0 mi SW 4.6 mph - N/A   Clear
11:15 AM 77.0 °F - 62.6 °F 61% 30.11 in 10.0 mi WNW 4.6 mph - N/A   Clear
11:35 AM 77.0 °F - 62.6 °F 61% 30.10 in 10.0 mi Calm Calm - N/A   Clear
12:15 PM 78.8 °F - 62.6 °F 57% 30.11 in 10.0 mi WSW 4.6 mph - N/A   Clear
12:35 PM 80.6 °F 81.8 °F 62.6 °F 54% 30.11 in 10.0 mi NNW 4.6 mph - N/A   Clear
12:55 PM 80.6 °F 81.8 °F 62.6 °F 54% 30.11 in 10.0 mi West 3.5 mph - N/A   Clear
1:15 PM 80.6 °F 81.8 °F 62.6 °F 54% 30.10 in 10.0 mi Calm Calm - N/A   Clear
1:35 PM 82.4 °F 82.9 °F 60.8 °F 48% 30.10 in 10.0 mi North 6.9 mph - N/A   Clear
1:55 PM 82.4 °F 82.9 °F 60.8 °F 48% 30.10 in 10.0 mi Calm Calm - N/A   Clear
2:15 PM 82.4 °F 83.4 °F 62.6 °F 51% 30.10 in 10.0 mi NW 8.1 mph - N/A   Scattered Clouds
2:35 PM 82.4 °F 83.4 °F 62.6 °F 51% 30.10 in 10.0 mi Calm Calm - N/A   Scattered Clouds
2:55 PM 86.0 °F 86.6 °F 62.6 °F 45% 30.09 in 10.0 mi WNW 6.9 mph - N/A   Mostly Cloudy
3:15 PM 84.2 °F 84.4 °F 60.8 °F 45% 30.10 in 10.0 mi Calm Calm - N/A   Scattered Clouds
3:35 PM 86.0 °F 86.1 °F 60.8 °F 43% 30.09 in 10.0 mi NNE 3.5 mph - N/A   Scattered Clouds
3:55 PM 86.0 °F 85.4 °F 59.0 °F 40% 30.09 in 10.0 mi NNE 3.5 mph - N/A   Clear
4:15 PM 86.0 °F 86.1 °F 60.8 °F 43% 30.09 in 10.0 mi West 4.6 mph - N/A   Clear
4:35 PM 86.0 °F 84.9 °F 57.2 °F 37% 30.09 in 10.0 mi NNE 3.5 mph - N/A   Clear
4:55 PM 86.0 °F 85.4 °F 59.0 °F 40% 30.09 in 10.0 mi Calm Calm - N/A   Clear
5:15 PM 86.0 °F 85.4 °F 59.0 °F 40% 30.09 in 10.0 mi Calm Calm - N/A   Clear
5:35 PM 86.0 °F 86.1 °F 60.8 °F 43% 30.09 in 10.0 mi Calm Calm - N/A   Clear
5:55 PM 86.0 °F 84.9 °F 57.2 °F 37% 30.08 in 10.0 mi Calm Calm - N/A   Clear
6:15 PM 86.0 °F 86.1 °F 60.8 °F 43% 30.08 in 10.0 mi Calm Calm - N/A   Clear
6:35 PM 86.0 °F 85.4 °F 59.0 °F 40% 30.08 in 10.0 mi ENE 3.5 mph - N/A   Clear
6:55 PM 86.0 °F 86.1 °F 60.8 °F 43% 30.08 in 10.0 mi Calm Calm - N/A   Clear
7:15 PM 82.4 °F 83.4 °F 62.6 °F 51% 30.09 in 10.0 mi Calm Calm - N/A   Clear
7:35 PM 82.4 °F 83.9 °F 64.4 °F 54% 30.09 in 10.0 mi Calm Calm - N/A   Clear
7:55 PM 82.4 °F 83.9 °F 64.4 °F 54% 30.09 in 10.0 mi Calm Calm - N/A   Mostly Cloudy
8:15 PM 82.4 °F 85.4 °F 68.0 °F 62% 30.10 in 10.0 mi Calm Calm - N/A   Scattered Clouds
8:35 PM 78.8 °F - 71.6 °F 78% 30.10 in 10.0 mi Calm Calm - N/A   Scattered Clouds
8:55 PM 78.8 °F - 69.8 °F 74% 30.11 in 10.0 mi Calm Calm - N/A   Scattered Clouds
9:15 PM 77.0 °F - 69.8 °F 78% 30.11 in 10.0 mi Calm Calm - N/A   Scattered Clouds
9:35 PM 77.0 °F - 71.6 °F 83% 30.11 in 10.0 mi Calm Calm - N/A   Mostly Cloudy
9:55 PM 73.4 °F - 69.8 °F 88% 30.11 in 10.0 mi Calm Calm - N/A   Scattered Clouds
10:15 PM 75.2 °F - 69.8 °F 83% 30.12 in 10.0 mi Calm Calm - N/A   Clear
10:35 PM 73.4 °F - 71.6 °F 94% 30.12 in 10.0 mi Calm Calm - N/A   Scattered Clouds
11:15 PM 73.4 °F - 68.0 °F 83% 30.13 in 10.0 mi Calm Calm - N/A   Scattered Clouds
11:35 PM 73.4 °F - 69.8 °F 88% 30.13 in 10.0 mi Calm Calm - N/A   Scattered Clouds
11:55 PM 73.4 °F - 69.8 °F 88% 30.14 in 10.0 mi Calm Calm - N/A   Scattered Clouds